Location: Asheville, NC
(35.6000°N, 82.5500°W)
Time: 02:48:58
(UTC-05:00)

Vanguard 1 Rocket - Pass Details

Date: 13 February 2018
Orbit: 655 x 4222 km, 34.3° (Epoch: 18 February)

Event Time Altitude Azimuth Distance (km) Brightness Sun altitude
Rises 21:55:28 0° 202° (SSW) 6,490 11.8 -45.9°
Reaches altitude 10° 21:59:51 10° 193° (SSW) 5,920 11.4 -46.7°
Enters shadow 22:04:47 21° 181° (S) 5,453 11.1 -47.7°
Maximum altitude 22:17:30 36° 134° (SE) 5,245 - -50.0°
Drops below altitude 10° 22:39:13 10° 79° (ENE) 7,309 - -53.9°
Sets 22:45:19 0° 72° (ENE) 8,120 - -55.0°
